ONEWEB-0127 (47273 NORAD) Tracking and Keplerian Element Data
This shows tracking and keplerian element data for the satellite.
Feedback or suggestion? Click here.
Element | Value |
Catalog | 47273 |
Name | ONEWEB-0127 |
Epoch Orbit | 177 |
Epoch Day | 60.91667824 |
Epoch Year | 2021 |
RAAN | 16.1874 |
Inclination | 87.6864 |
Eccentricity | 0.0012526 |
Argument of Perigee | 28.7943 |
Mean Anonmoly | 332.1508 |
Mean Motion | 14.05039419 |
Decay Rate | -0.01109763 |
L1 | 1 47273U 20100R 21060.91667824 -.01109763 00000-0 -73636+0 0 9991 |
L2 | 2 47273 87.6864 16.1874 0012526 28.7943 332.1508 14.05039419 1773 |
Live tracking and technical data element details for ONEWEB-0127 (NORAD 47273). ONEWEB-0127 can be tracked NOW for your location showing map with azimuth and elevation plus other details from your city location.
Track the satellite on the map from your city or location and see movement details for azimuth, elevation, latitude, longitude, range, height, and movement on the map or in text.
IsCatalogInMostPopularTable: catalog: 47273, numindb: 25
Update: records affected: 1
GetName: 47273 ONEWEB-0127
Hit Count: updated at: Tue, 02 Mar 2021 13:43:26 GMT